Location: Glums�
(55.3568°N, 11.6856°E)
Time: 18:34:57
(UTC+00:00)

Cosmos 1763 Rocket - Pass Details

Date: 07 June 2020
Orbit: 733 x 780 km, 74.0° (Epoch: 04 July)

Event Time Altitude Azimuth Distance (km) Brightness Sun altitude
Exits shadow 00:05:57 14° 208° (SSW) 1,981 5.0 -11.0°
Maximum altitude 00:10:22 86° 297° (WNW) 745 3.4 -10.9°
Drops below altitude 10° 00:15:28 10° 27° (NNE) 2,249 7.4 -10.7°
Sets 00:17:49 0° 28° (NNE) 3,177 8.5 -10.6°
